Time,TemperatureF,DewpointF,PressureIn,WindDirection,WindDirectionDegrees,WindSpeedMPH,WindSpeedGustMPH,Humidity,HourlyPrecipIn,Conditions,Clouds,dailyrainin,SolarRadiationWatts/m^2,SoftwareType,DateUTC
2013-05-31 00:02:00,44.0,34.0,-100.00,North,2,0.0,0.0,69,-99.99,,,0.00,0.000000,,2013-05-31 07:02:00,
2013-05-31 00:11:00,44.0,34.0,-100.00,North,2,0.0,0.0,69,-99.99,,,0.00,0.000000,,2013-05-31 07:11:00,
2013-05-31 00:32:00,39.0,33.0,-100.00,SW,234,1.0,4.0,78,-99.99,,,0.00,0.000000,,2013-05-31 07:32:00,
2013-05-31 00:41:00,39.0,33.0,-100.00,SW,234,1.0,4.0,78,-99.99,,,0.00,0.000000,,2013-05-31 07:41:00,
2013-05-31 00:52:00,39.0,33.0,-100.00,SW,234,1.0,4.0,78,-99.99,,,0.00,0.000000,,2013-05-31 07:52:00,
2013-05-31 01:01:00,39.0,33.0,-100.00,SW,234,1.0,4.0,78,-99.99,,,0.00,0.000000,,2013-05-31 08:01:00,
2013-05-31 01:11:00,39.0,33.0,-100.00,SW,234,1.0,4.0,78,-99.99,,,0.00,0.000000,,2013-05-31 08:11:00,
2013-05-31 01:31:00,37.0,31.0,-100.00,WSW,258,0.0,1.0,80,-99.99,,,-99.99,0.000000,,2013-05-31 08:31:00,
2013-05-31 01:42:00,37.0,31.0,-100.00,WSW,258,0.0,1.0,80,-99.99,,,-99.99,0.000000,,2013-05-31 08:42:00,
2013-05-31 01:52:00,37.0,31.0,-100.00,WSW,258,0.0,1.0,80,-99.99,,,-99.99,0.000000,,2013-05-31 08:52:00,
2013-05-31 02:01:00,37.0,31.0,-100.00,WSW,258,0.0,1.0,80,-99.99,,,-99.99,0.000000,,2013-05-31 09:01:00,
2013-05-31 02:11:00,37.0,31.0,-100.00,WSW,258,0.0,1.0,80,-99.99,,,-99.99,0.000000,,2013-05-31 09:11:00,
2013-05-31 02:32:00,35.0,31.0,-100.00,SW,235,1.0,3.0,83,-99.99,,,0.00,0.000000,,2013-05-31 09:32:00,
2013-05-31 02:43:00,35.0,31.0,-100.00,SW,235,1.0,3.0,83,-99.99,,,0.00,0.000000,,2013-05-31 09:43:00,
2013-05-31 02:53:00,35.0,31.0,-100.00,SW,235,1.0,3.0,83,-99.99,,,0.00,0.000000,,2013-05-31 09:53:00,
2013-05-31 03:02:00,35.0,31.0,-100.00,SW,235,1.0,3.0,83,-99.99,,,0.00,0.000000,,2013-05-31 10:02:00,
2013-05-31 03:12:00,35.0,31.0,-100.00,SW,235,1.0,3.0,83,-99.99,,,0.00,0.000000,,2013-05-31 10:12:00,
2013-05-31 03:33:00,34.0,30.0,-100.00,SW,233,1.0,4.0,84,-99.99,,,0.00,0.000000,,2013-05-31 10:33:00,
2013-05-31 03:42:00,34.0,30.0,-100.00,SW,233,1.0,4.0,84,-99.99,,,0.00,0.000000,,2013-05-31 10:42:00,
2013-05-31 03:52:00,34.0,30.0,-100.00,SW,233,1.0,4.0,84,-99.99,,,0.00,0.000000,,2013-05-31 10:52:00,
2013-05-31 04:01:00,34.0,30.0,-100.00,SW,233,1.0,4.0,84,-99.99,,,0.00,0.000000,,2013-05-31 11:01:00,
2013-05-31 04:11:00,34.0,30.0,-100.00,SW,233,1.0,4.0,84,-99.99,,,0.00,0.000000,,2013-05-31 11:11:00,
2013-05-31 04:32:00,33.0,30.0,-100.00,SW,214,1.0,3.0,85,-99.99,,,0.00,0.000000,,2013-05-31 11:32:00,
2013-05-31 04:42:00,33.0,30.0,-100.00,SW,214,1.0,3.0,85,-99.99,,,0.00,0.000000,,2013-05-31 11:42:00,
2013-05-31 04:52:00,33.0,30.0,-100.00,SW,214,1.0,3.0,85,-99.99,,,0.00,0.000000,,2013-05-31 11:52:00,
2013-05-31 05:01:00,33.0,30.0,-100.00,SW,214,1.0,3.0,85,-99.99,,,0.00,0.000000,,2013-05-31 12:01:00,
2013-05-31 05:11:00,33.0,30.0,-100.00,SW,214,1.0,3.0,85,-99.99,,,0.00,0.000000,,2013-05-31 12:11:00,
2013-05-31 05:31:00,32.0,30.0,-100.00,SW,221,0.0,1.0,90,-99.99,,,0.00,0.580000,,2013-05-31 12:31:00,
2013-05-31 05:41:00,32.0,30.0,-100.00,SW,221,0.0,1.0,90,-99.99,,,0.00,0.580000,,2013-05-31 12:41:00,
2013-05-31 05:52:00,32.0,30.0,-100.00,SW,221,0.0,1.0,90,-99.99,,,0.00,0.580000,,2013-05-31 12:52:00,
2013-05-31 06:01:00,32.0,30.0,-100.00,SW,221,0.0,1.0,90,-99.99,,,0.00,0.580000,,2013-05-31 13:01:00,
2013-05-31 06:11:00,32.0,30.0,-100.00,SW,221,0.0,1.0,90,-99.99,,,0.00,0.580000,,2013-05-31 13:11:00,
2013-05-31 06:32:00,33.0,30.0,-100.00,SW,228,0.0,3.0,87,-99.99,,,0.00,25.219999,,2013-05-31 13:32:00,
2013-05-31 06:42:00,33.0,30.0,-100.00,SW,228,0.0,3.0,87,-99.99,,,0.00,25.219999,,2013-05-31 13:42:00,
2013-05-31 06:52:00,33.0,30.0,-100.00,SW,228,0.0,3.0,87,-99.99,,,0.00,25.219999,,2013-05-31 13:52:00,
2013-05-31 07:02:00,33.0,30.0,-100.00,SW,228,0.0,3.0,87,-99.99,,,0.00,25.219999,,2013-05-31 14:02:00,
2013-05-31 07:11:00,33.0,30.0,-100.00,SW,228,0.0,3.0,87,-99.99,,,0.00,25.219999,,2013-05-31 14:11:00,
2013-05-31 07:32:00,41.0,33.0,-100.00,SSW,199,2.0,4.0,73,-99.99,,,0.00,248.009995,,2013-05-31 14:32:00,
2013-05-31 07:41:00,41.0,33.0,-100.00,SSW,199,2.0,4.0,73,-99.99,,,0.00,248.009995,,2013-05-31 14:41:00,
2013-05-31 07:52:00,41.0,33.0,-100.00,SSW,199,2.0,4.0,73,-99.99,,,0.00,248.009995,,2013-05-31 14:52:00,
2013-05-31 08:01:00,41.0,33.0,-100.00,SSW,199,2.0,4.0,73,-99.99,,,0.00,248.009995,,2013-05-31 15:01:00,
2013-05-31 08:11:00,41.0,33.0,-100.00,SSW,199,2.0,4.0,73,-99.99,,,0.00,248.009995,,2013-05-31 15:11:00,
2013-05-31 08:33:00,46.0,35.0,-100.00,WSW,241,2.0,5.0,65,-99.99,,,0.00,383.529999,,2013-05-31 15:33:00,
2013-05-31 08:43:00,46.0,35.0,-100.00,WSW,241,2.0,5.0,65,-99.99,,,0.00,383.529999,,2013-05-31 15:43:00,
2013-05-31 08:53:00,46.0,35.0,-100.00,WSW,241,2.0,5.0,65,-99.99,,,0.00,383.529999,,2013-05-31 15:53:00,
2013-05-31 09:03:00,46.0,35.0,-100.00,WSW,241,2.0,5.0,65,-99.99,,,0.00,383.529999,,2013-05-31 16:03:00,
2013-05-31 09:12:00,46.0,35.0,-100.00,WSW,241,2.0,5.0,65,-99.99,,,0.00,383.529999,,2013-05-31 16:12:00,
2013-05-31 09:33:00,51.0,36.0,-100.00,North,11,2.0,5.0,57,-99.99,,,0.00,506.839996,,2013-05-31 16:33:00,
2013-05-31 09:42:00,51.0,36.0,-100.00,North,11,2.0,5.0,57,-99.99,,,0.00,506.839996,,2013-05-31 16:42:00,
2013-05-31 09:52:00,51.0,36.0,-100.00,North,11,2.0,5.0,57,-99.99,,,0.00,506.839996,,2013-05-31 16:52:00,
2013-05-31 10:02:00,51.0,36.0,-100.00,North,11,2.0,5.0,57,-99.99,,,0.00,506.839996,,2013-05-31 17:02:00,
2013-05-31 10:12:00,51.0,36.0,-100.00,North,11,2.0,5.0,57,-99.99,,,0.00,506.839996,,2013-05-31 17:12:00,
2013-05-31 10:42:00,54.0,35.0,-100.00,NE,45,2.0,5.0,49,-99.99,,,0.00,791.340027,,2013-05-31 17:42:00,
2013-05-31 10:52:00,54.0,35.0,-100.00,NE,45,2.0,5.0,49,-99.99,,,0.00,791.340027,,2013-05-31 17:52:00,
2013-05-31 11:01:00,54.0,35.0,-100.00,NE,45,2.0,5.0,49,-99.99,,,0.00,791.340027,,2013-05-31 18:01:00,
2013-05-31 11:11:00,54.0,35.0,-100.00,NE,45,2.0,5.0,49,-99.99,,,0.00,791.340027,,2013-05-31 18:11:00,
2013-05-31 11:41:00,59.0,34.0,-100.00,NNE,17,2.0,5.0,39,-99.99,,,-99.99,921.619995,,2013-05-31 18:41:00,
2013-05-31 11:52:00,59.0,34.0,-100.00,NNE,17,2.0,5.0,39,-99.99,,,-99.99,921.619995,,2013-05-31 18:52:00,
2013-05-31 12:01:00,59.0,34.0,-100.00,NNE,17,2.0,5.0,39,-99.99,,,-99.99,921.619995,,2013-05-31 19:01:00,
2013-05-31 12:11:00,59.0,34.0,-100.00,NNE,17,2.0,5.0,39,-99.99,,,-99.99,921.619995,,2013-05-31 19:11:00,
2013-05-31 12:42:00,61.0,31.0,-100.00,NE,56,2.0,6.0,32,-99.99,,,0.00,1001.820007,,2013-05-31 19:42:00,
2013-05-31 12:52:00,61.0,31.0,-100.00,NE,56,2.0,6.0,32,-99.99,,,0.00,1001.820007,,2013-05-31 19:52:00,
2013-05-31 13:01:00,61.0,31.0,-100.00,NE,56,2.0,6.0,32,-99.99,,,0.00,1001.820007,,2013-05-31 20:01:00,
2013-05-31 13:11:00,61.0,31.0,-100.00,NE,56,2.0,6.0,32,-99.99,,,0.00,1001.820007,,2013-05-31 20:11:00,
2013-05-31 13:41:00,65.0,30.0,-100.00,NNE,21,3.0,8.0,27,-99.99,,,-99.99,1019.250000,,2013-05-31 20:41:00,
2013-05-31 13:52:00,65.0,30.0,-100.00,NNE,21,3.0,8.0,27,-99.99,,,-99.99,1019.250000,,2013-05-31 20:52:00,
2013-05-31 14:01:00,65.0,30.0,-100.00,NNE,21,3.0,8.0,27,-99.99,,,-99.99,1019.250000,,2013-05-31 21:01:00,
2013-05-31 14:11:00,65.0,30.0,-100.00,NNE,21,3.0,8.0,27,-99.99,,,-99.99,1019.250000,,2013-05-31 21:11:00,
2013-05-31 14:42:00,67.0,27.0,-100.00,NNW,332,2.0,7.0,22,-99.99,,,0.00,986.710022,,2013-05-31 21:42:00,
2013-05-31 14:54:00,67.0,27.0,-100.00,NNW,332,2.0,7.0,22,-99.99,,,0.00,986.710022,,2013-05-31 21:54:00,
2013-05-31 15:02:00,67.0,27.0,-100.00,NNW,332,2.0,7.0,22,-99.99,,,0.00,986.710022,,2013-05-31 22:02:00,
2013-05-31 15:12:00,67.0,27.0,-100.00,NNW,332,2.0,7.0,22,-99.99,,,0.00,986.710022,,2013-05-31 22:12:00,
2013-05-31 15:42:00,68.0,26.0,-100.00,North,8,3.0,11.0,20,-99.99,,,0.00,896.059998,,2013-05-31 22:42:00,
2013-05-31 15:53:00,68.0,26.0,-100.00,North,8,3.0,11.0,20,-99.99,,,0.00,896.059998,,2013-05-31 22:53:00,
2013-05-31 16:02:00,68.0,26.0,-100.00,North,8,3.0,11.0,20,-99.99,,,0.00,896.059998,,2013-05-31 23:02:00,
2013-05-31 16:12:00,68.0,26.0,-100.00,North,8,3.0,11.0,20,-99.99,,,0.00,896.059998,,2013-05-31 23:12:00,
2013-05-31 16:32:00,69.0,27.0,-100.00,NNW,341,4.0,9.0,20,-99.99,,,0.00,759.729980,,2013-05-31 23:32:00,
2013-05-31 16:42:00,69.0,27.0,-100.00,NNW,341,4.0,9.0,20,-99.99,,,0.00,759.729980,,2013-05-31 23:42:00,
2013-05-31 16:52:00,69.0,27.0,-100.00,NNW,341,4.0,9.0,20,-99.99,,,0.00,759.729980,,2013-05-31 23:52:00,
2013-05-31 17:01:00,69.0,27.0,-100.00,NNW,341,4.0,9.0,20,-99.99,,,0.00,759.729980,,2013-06-01 00:01:00,
2013-05-31 17:11:00,69.0,27.0,-100.00,NNW,341,4.0,9.0,20,-99.99,,,0.00,759.729980,,2013-06-01 00:11:00,
2013-05-31 17:32:00,69.0,30.0,-100.00,North,2,3.0,8.0,23,-99.99,,,0.00,587.380005,,2013-06-01 00:32:00,
2013-05-31 17:42:00,69.0,30.0,-100.00,North,2,3.0,8.0,23,-99.99,,,0.00,587.380005,,2013-06-01 00:42:00,
2013-05-31 17:52:00,69.0,30.0,-100.00,North,2,3.0,8.0,23,-99.99,,,0.00,587.380005,,2013-06-01 00:52:00,
2013-05-31 18:01:00,69.0,30.0,-100.00,North,2,3.0,8.0,23,-99.99,,,0.00,587.380005,,2013-06-01 01:01:00,
2013-05-31 18:11:00,69.0,30.0,-100.00,North,2,3.0,8.0,23,-99.99,,,0.00,587.380005,,2013-06-01 01:11:00,
2013-05-31 18:32:00,67.0,33.0,-100.00,NNE,21,3.0,12.0,28,-99.99,,,0.00,396.540009,,2013-06-01 01:32:00,
2013-05-31 18:42:00,67.0,33.0,-100.00,NNE,21,3.0,12.0,28,-99.99,,,0.00,396.540009,,2013-06-01 01:42:00,
2013-05-31 18:52:00,67.0,33.0,-100.00,NNE,21,3.0,12.0,28,-99.99,,,0.00,396.540009,,2013-06-01 01:52:00,
2013-05-31 19:01:00,67.0,33.0,-100.00,NNE,21,3.0,12.0,28,-99.99,,,0.00,396.540009,,2013-06-01 02:01:00,
2013-05-31 19:11:00,67.0,33.0,-100.00,NNE,21,3.0,12.0,28,-99.99,,,0.00,396.540009,,2013-06-01 02:11:00,
2013-05-31 19:32:00,66.0,34.0,-100.00,North,350,5.0,10.0,30,-99.99,,,0.00,31.030001,,2013-06-01 02:32:00,
2013-05-31 19:42:00,66.0,34.0,-100.00,North,350,5.0,10.0,30,-99.99,,,0.00,31.030001,,2013-06-01 02:42:00,
2013-05-31 19:52:00,66.0,34.0,-100.00,North,350,5.0,10.0,30,-99.99,,,0.00,31.030001,,2013-06-01 02:52:00,
2013-05-31 20:01:00,66.0,34.0,-100.00,North,350,5.0,10.0,30,-99.99,,,0.00,31.030001,,2013-06-01 03:01:00,
2013-05-31 20:11:00,66.0,34.0,-100.00,North,350,5.0,10.0,30,-99.99,,,0.00,31.030001,,2013-06-01 03:11:00,
2013-05-31 20:33:00,63.0,34.0,-100.00,North,354,3.0,8.0,33,-99.99,,,0.00,13.130000,,2013-06-01 03:33:00,
2013-05-31 20:43:00,63.0,34.0,-100.00,North,354,3.0,8.0,33,-99.99,,,0.00,13.130000,,2013-06-01 03:43:00,
2013-05-31 20:53:00,63.0,34.0,-100.00,North,354,3.0,8.0,33,-99.99,,,0.00,13.130000,,2013-06-01 03:53:00,
2013-05-31 21:02:00,63.0,34.0,-100.00,North,354,3.0,8.0,33,-99.99,,,0.00,13.130000,,2013-06-01 04:02:00,
2013-05-31 21:12:00,63.0,34.0,-100.00,North,354,3.0,8.0,33,-99.99,,,0.00,13.130000,,2013-06-01 04:12:00,
2013-05-31 21:33:00,60.0,35.0,-100.00,NW,325,1.0,3.0,38,-99.99,,,0.00,0.120000,,2013-06-01 04:33:00,
2013-05-31 21:42:00,60.0,35.0,-100.00,NW,325,1.0,3.0,38,-99.99,,,0.00,0.120000,,2013-06-01 04:42:00,
2013-05-31 21:53:00,60.0,35.0,-100.00,NW,325,1.0,3.0,38,-99.99,,,0.00,0.120000,,2013-06-01 04:53:00,
2013-05-31 22:02:00,60.0,35.0,-100.00,NW,325,1.0,3.0,38,-99.99,,,0.00,0.120000,,2013-06-01 05:02:00,
2013-05-31 22:12:00,60.0,35.0,-100.00,NW,325,1.0,3.0,38,-99.99,,,0.00,0.120000,,2013-06-01 05:12:00,
2013-05-31 22:32:00,57.0,35.0,-100.00,NW,320,1.0,4.0,43,-99.99,,,0.00,0.000000,,2013-06-01 05:32:00,
2013-05-31 22:42:00,57.0,35.0,-100.00,NW,320,1.0,4.0,43,-99.99,,,0.00,0.000000,,2013-06-01 05:42:00,
2013-05-31 22:52:00,57.0,35.0,-100.00,NW,320,1.0,4.0,43,-99.99,,,0.00,0.000000,,2013-06-01 05:52:00,
2013-05-31 23:01:00,57.0,35.0,-100.00,NW,320,1.0,4.0,43,-99.99,,,0.00,0.000000,,2013-06-01 06:01:00,
2013-05-31 23:12:00,57.0,35.0,-100.00,NW,320,1.0,4.0,43,-99.99,,,0.00,0.000000,,2013-06-01 06:12:00,
2013-05-31 23:32:00,53.0,36.0,-100.00,SW,233,0.0,1.0,51,-99.99,,,0.00,0.000000,,2013-06-01 06:32:00,
2013-05-31 23:42:00,53.0,36.0,-100.00,SW,233,0.0,1.0,51,-99.99,,,0.00,0.000000,,2013-06-01 06:42:00,
2013-05-31 23:52:00,53.0,36.0,-100.00,SW,233,0.0,1.0,51,-99.99,,,0.00,0.000000,,2013-06-01 06:52:00,